Temp
21 20 20 20 20 19 19 19 19 19 19 18 18 18 18 17 17 16 16 15 14 14 14 14 14 13 13 13 13 13 13 13 13 13 12 12 12 12 12 12 12 11 11 11 10 10 10 10 10 10 10 10 10 10 10 10 10 9 9 9 9 9 9 9 9 9 9 9 9
21 20 20 20 20 19 19 19 19 19 19 18 18 18 18 17 17 16 16 15 15 14 14 14 14 14 13 13 13 13 13 13 13 13 12 12 12 12 12 12 11 11 11 11 10 10 10 10 10 10 10 10 10 10 10 9 9 9 9 9 9 9 9 9 9 9 9 9 9
21 21 20 20 20 19 19 19 19 19 19 18 18 18 18 17 17 16 16 15 15 14 14 14 14 14 13 13 13 13 13 13 13 13 12 12 12 12 12 12 11 11 11 10 10 10 10 10 10 10 10 10 10 10 10 9 9 9 9 9 9 9 9 9 9 9 9 9 8
21 21 20 20 19 19 19 19 19 19 18 18 18 18 18 17 17 16 16 15 15 15 14 14 14 14 14 13 13 13 13 13 13 12 12 12 12 12 12 11 11 11 10 10 10 10 10 10 10 10 10 10 10 10 9 9 9 9 9 9 9 9 9 9 9 9 9 8 8
21 21 20 20 19 19 19 19 19 19 18 18 18 18 18 17 17 16 16 15 15 15 15 14 14 14 14 13 13 13 13 13 13 12 12 12 12 12 12 11 11 11 10 10 10 10 10 10 10 10 10 10 10 10 9 9 9 9 9 9 9 9 9 9 9 9 8 8 8
21 21 20 19 19 19 19 19 19 18 18 18 18 18 18 17 17 16 16 15 15 15 15 14 14 14 14 13 13 13 13 13 13 12 12 12 12 12 11 11 11 11 10 10 10 10 10 10 10 10 10 10 10 10 9 9 9 9 9 9 9 9 9 9 9 8 8 8 8
22 21 20 19 19 19 19 19 18 18 18 18 18 18 18 17 17 16 16 15 15 15 15 14 14 14 14 13 13 13 13 13 12 12 12 12 12 12 11 11 11 11 10 10 10 10 10 10 10 10 9 9 9 9 9 9 9 9 9 9 9 9 9 9 8 8 8 8 8
22 21 20 19 19 19 19 18 18 18 18 18 18 18 18 17 17 16 16 15 15 15 15 14 14 14 14 13 13 13 13 13 12 12 12 12 12 12 11 11 11 10 10 10 10 10 10 10 10 9 9 9 9 9 9 9 9 9 9 9 9 9 9 8 8 8 8 8 8
22 21 20 19 19 19 19 18 18 18 18 17 17 18 18 17 17 16 16 15 15 15 15 14 14 14 14 13 13 13 13 12 12 12 12 12 12 11 11 11 11 10 10 10 10 10 10 10 9 9 9 9 9 9 9 9 9 9 9 9 9 9 8 8 8 8 8 7 7
22 21 20 19 19 19 18 18 18 18 17 17 17 17 17 17 17 16 16 15 15 15 15 14 14 14 13 13 13 13 13 12 12 12 12 12 12 11 11 11 11 10 10 10 10 10 9 9 9 9 9 9 9 9 9 9 9 9 9 9 8 8 8 8 8 8 7 7 7
22 21 20 20 19 19 18 18 18 18 17 17 17 17 17 17 16 16 16 15 15 15 15 14 14 14 13 13 13 13 12 12 12 12 12 12 12 11 11 11 11 10 10 10 10 10 9 9 9 9 9 9 9 9 9 9 9 9 9 8 8 8 8 8 8 8 8 7 7
22 21 20 20 19 19 18 18 18 18 17 17 17 17 17 17 16 16 16 15 15 15 15 14 14 14 13 13 13 13 12 12 12 12 12 12 11 11 11 11 11 10 10 10 10 9 9 9 9 9 9 9 9 9 9 9 9 9 9 8 8 8 8 8 8 8 8 8 7
22 21 20 20 19 19 18 18 18 18 18 17 18 17 17 16 16 16 16 15 15 15 14 14 14 14 13 13 13 13 13 12 12 12 12 12 11 11 11 11 11 10 10 10 10 9 9 9 9 9 9 9 9 9 9 9 9 9 9 8 8 8 8 8 8 8 8 8 8
21 21 20 20 19 19 18 18 18 18 18 18 18 17 17 16 16 16 15 15 15 15 14 14 14 13 13 13 13 13 13 12 12 12 12 12 11 11 11 11 11 10 10 10 10 9 9 9 9 9 9 9 9 9 9 9 9 9 9 9 9 8 8 8 8 8 8 8 8
21 21 20 20 19 19 19 18 18 18 18 18 18 17 17 16 16 16 15 15 15 14 14 14 14 13 13 13 13 13 13 12 12 12 12 12 11 11 11 11 10 10 10 10 10 9 9 9 9 9 9 9 9 9 9 9 9 9 9 9 9 8 8 8 8 8 8 8 8
21 21 21 20 20 19 19 18 18 18 18 18 18 17 17 16 16 15 15 15 14 14 14 14 13 13 13 13 13 13 13 13 12 12 12 12 11 11 11 10 10 10 10 10 9 9 9 9 9 9 9 9 9 9 9 9 9 9 9 9 9 8 8 8 8 8 8 8 7
21 21 21 20 20 19 19 19 19 18 18 18 17 17 16 16 16 15 15 15 14 14 14 14 13 13 13 13 13 13 13 12 12 12 12 11 11 11 11 10 10 10 10 10 9 9 9 9 9 9 9 9 9 9 9 9 9 9 9 9 9 8 8 8 8 8 8 7 7
21 21 21 20 20 20 19 19 19 18 18 18 17 17 16 16 15 15 15 14 14 14 14 13 13 13 13 13 13 13 13 12 12 12 11 11 11 11 10 10 10 10 10 9 9 9 9 9 9 9 8 9 9 9 9 9 9 9 9 9 9 8 8 8 8 8 7 7 7
21 21 21 21 20 20 19 19 19 18 18 18 17 17 16 16 15 15 14 14 14 14 13 13 13 13 13 13 13 13 12 12 12 11 11 11 11 10 10 10 10 10 9 9 9 9 9 9 9 9 9 9 8 8 8 8 8 8 8 8 8 8 8 8 8 8 7 7 7
21 21 21 21 20 20 20 19 19 18 18 18 17 17 16 15 15 14 14 14 14 14 13 13 13 13 13 13 12 12 12 12 11 11 11 11 11 10 10 10 9 9 9 9 8 9 9 9 9 9 9 9 8 8 8 8 8 8 8 8 8 8 8 8 8 7 7 7 7
21 21 21 21 20 20 19 19 18 18 18 17 17 16 15 15 14 14 14 14 14 14 13 13 13 13 13 12 12 12 11 11 11 11 11 11 10 10 10 9 9 8 8 8 8 8 9 9 9 9 9 9 9 8 8 8 8 8 8 8 8 7 7 7 7 7 7 7 7
21 21 21 21 20 20 19 18 18 17 17 16 16 15 15 14 14 14 14 14 13 13 13 13 13 13 12 12 12 11 11 11 10 10 10 10 10 9 9 9 8 8 8 8 8 9 9 9 9 9 9 9 9 8 8 8 8 8 8 7 7 7 7 7 7 7 7 7 7
22 21 21 20 19 18 18 17 16 16 16 15 15 15 14 14 14 14 13 13 13 13 13 13 12 12 12 12 11 11 10 9 9 9 9 9 9 8 8 8 8 8 8 9 9 9 9 9 9 9 9 9 9 8 8 8 8 8 7 7 7 7 7 7 7 7 7 7 7
20 20 19 18 18 17 16 15 15 15 15 14 14 14 14 14 14 13 13 13 13 13 13 12 12 12 12 11 11 10 9 9 9 9 8 8 8 8 8 8 8 8 9 9 9 9 9 9 9 9 9 8 8 8 8 8 8 7 7 7 7 7 7 7 7 7 7 7 7
17 17 17 16 16 15 15 14 14 14 14 14 14 13 13 13 13 13 13 13 12 12 12 12 12 11 11 10 9 9 8 8 8 8 8 8 8 8 8 8 8 9 9 9 9 9 9 9 9 9 8 8 8 8 8 7 7 7 7 7 7 7 7 7 7 7 7 7 7
15 15 15 15 15 14 14 14 13 13 13 13 13 13 12 12 12 12 12 12 12 12 12 11 11 10 10 9 8 8 8 8 8 8 8 8 8 8 8 9 9 9 9 9 9 9 9 9 9 8 8 8 8 7 7 7 7 7 7 7 7 7 7 7 7 7 7 7 7
14 14 14 14 14 14 13 13 13 13 12 12 12 12 11 11 11 11 11 12 11 11 11 10 10 9 9 8 8 8 8 7 7 8 8 8 8 8 9 9 9 9 9 9 9 9 9 8 8 8 8 8 7 7 7 7 7 7 7 7 7 7 7 7 6 6 6 6 6
13 13 14 13 13 13 13 13 13 12 12 11 11 11 11 11 11 11 11 11 11 10 10 9 9 8 8 8 8 7 7 7 7 8 8 8 9 9 9 9 9 9 9 9 8 8 8 8 8 8 8 8 7 7 7 7 7 6 6 6 6 6 6 6 6 6 6 6 6
14 13 13 13 13 13 13 13 12 12 12 11 11 11 11 11 11 10 10 10 10 9 9 9 8 8 8 8 7 7 7 7 7 8 8 8 9 9 9 9 9 9 8 8 8 8 8 8 8 8 8 7 7 7 7 6 6 6 6 6 6 6 6 6 6 6 6 6 6
14 14 13 13 13 13 13 13 12 12 12 11 11 11 11 11 10 10 10 9 9 9 9 9 8 8 7 7 7 7 7 7 8 8 8 9 9 9 9 9 8 8 8 8 8 8 8 8 8 8 7 7 7 7 7 6 6 6 6 6 6 6 6 6 6 7 7 7 6
14 14 14 14 14 13 13 13 12 12 12 11 11 10 10 10 9 9 9 9 9 9 8 8 8 7 7 7 7 7 8 8 8 8 9 9 9 9 8 8 8 8 8 8 8 8 8 7 7 7 7 7 7 7 6 6 6 6 6 5 6 6 6 6 6 6 7 7 7
15 15 15 14 14 14 14 13 12 12 11 11 10 10 9 9 9 9 9 9 9 9 8 8 8 7 7 7 8 8 8 8 8 8 8 8 8 8 8 8 8 8 8 8 8 7 7 7 7 7 7 7 7 6 6 6 6 6 5 5 5 5 6 6 6 6 6 6 7
15 15 15 15 15 14 14 13 12 12 11 11 10 10 10 10 10 10 10 10 9 9 8 8 8 8 8 8 8 8 8 9 9 8 8 8 8 8 8 8 8 8 8 8 7 7 7 7 7 7 7 7 7 6 6 6 6 6 5 5 5 5 5 5 6 6 6 6 6
16 15 15 15 15 14 13 13 12 12 11 11 11 11 10 10 10 10 10 10 9 9 8 8 8 8 8 8 8 8 9 9 9 8 8 8 8 8 8 8 8 8 7 7 7 7 7 7 7 7 7 7 7 6 6 6 6 5 5 5 5 5 5 5 5 5 5 6 6
16 15 15 15 14 14 13 13 12 12 12 11 11 11 11 11 10 10 10 10 9 9 8 8 8 8 8 8 9 9 9 9 8 8 8 8 8 8 8 7 7 7 7 7 7 7 7 7 7 7 7 7 7 6 6 6 6 5 5 5 5 5 5 5 5 5 5 5 5
16 15 15 15 14 14 13 13 12 12 12 12 11 11 11 11 10 10 10 9 9 9 9 8 8 8 9 9 9 9 9 8 8 8 8 8 8 7 7 7 7 7 7 7 7 7 7 7 7 7 7 7 7 6 6 6 5 5 5 5 5 5 5 5 5 5 5 5 5
16 15 15 14 14 14 13 13 12 12 12 12 11 11 11 11 10 10 9 9 9 9 9 9 9 9 9 9 9 9 8 8 8 8 8 8 7 7 7 7 7 7 7 7 7 7 7 7 7 7 7 7 7 6 6 5 5 5 5 5 5 5 5 5 5 5 5 5 5
15 15 15 14 14 14 13 13 12 12 12 11 11 11 11 10 10 10 9 9 9 9 9 9 9 9 9 9 9 8 8 8 8 8 7 7 7 7 7 7 7 7 7 7 7 7 7 7 7 7 7 7 6 6 6 5 5 5 5 5 5 5 5 5 5 5 5 5 5
15 15 15 14 14 14 13 12 12 12 11 11 11 11 10 10 10 10 9 9 9 9 9 9 9 9 9 9 8 8 8 8 8 7 7 7 7 7 7 7 7 7 7 7 7 7 7 7 7 7 7 6 6 6 5 5 5 5 5 5 5 5 5 5 5 5 5 5 5
15 15 14 14 14 13 12 12 11 11 11 11 11 10 10 10 10 10 9 9 9 9 9 9 9 9 9 8 8 8 8 8 7 7 7 7 7 7 7 7 7 7 7 7 7 7 7 7 7 7 6 6 6 6 5 5 5 5 5 5 5 5 5 5 5 5 5 5 5
15 14 14 14 13 12 12 11 11 11 11 11 11 10 10 10 10 10 10 10 9 9 9 9 9 9 9 8 8 8 8 8 8 7 7 7 7 7 7 7 7 7 7 7 7 7 7 7 7 7 6 6 6 6 5 5 5 5 5 5 5 5 5 5 5 5 5 5 5
Height
796 797 799 799 801 802 803 805 806 807 809 810 811 812 814 815 816 817 818 819 820 822 823 824 826 827 828 829 830 832 833 834 835 836 837 838 839 840 841 842 843 843 844 845 846 846 847 848 849 850 850 851 852 852 853 853 854 854 855 855 856 856 856 857 857 857 858 858 858
794 795 797 798 799 800 802 803 804 805 806 808 809 810 812 813 814 816 817 818 819 820 822 823 825 826 827 828 829 831 832 833 834 835 836 837 838 839 840 841 842 843 843 844 845 846 847 848 848 849 850 850 851 851 852 852 853 853 854 854 855 855 856 856 856 857 857 857 857
792 794 795 796 798 799 800 802 803 804 805 806 807 809 810 811 813 814 815 816 817 819 820 822 823 824 826 827 828 830 831 832 833 834 835 836 837 838 839 840 841 842 843 843 844 845 846 847 848 848 849 849 850 850 851 851 852 852 853 853 854 855 855 855 856 856 856 856 857
791 792 794 794 796 797 798 800 801 802 803 804 806 807 809 810 811 813 814 815 816 818 819 820 822 823 824 825 827 829 830 831 832 833 834 835 836 837 838 839 840 841 842 842 843 844 845 846 847 848 848 849 849 850 850 850 851 851 852 853 853 854 854 855 855 855 856 856 856
789 790 792 793 794 795 797 798 799 800 802 803 805 806 807 809 810 811 812 814 815 816 817 819 820 821 823 824 825 827 829 830 831 832 833 834 835 836 837 838 839 840 841 841 842 843 844 845 846 847 848 848 849 849 849 850 850 851 851 852 853 853 853 854 854 855 855 855 855
787 789 790 792 793 794 796 797 798 799 801 802 804 805 806 807 808 809 810 812 813 814 815 817 819 820 821 823 824 826 827 829 830 831 832 833 834 835 836 837 838 839 840 840 841 842 843 844 845 846 847 848 848 849 849 849 850 850 851 851 852 852 853 853 853 854 854 854 854
785 787 789 790 792 793 794 796 797 798 799 801 802 804 805 806 807 808 809 810 811 813 814 815 817 819 820 821 823 824 826 827 828 829 831 832 833 834 835 836 837 838 839 839 840 841 842 843 844 845 846 847 848 848 848 849 849 850 850 850 851 851 852 852 853 853 853 853 853
783 785 787 789 790 792 793 794 796 797 798 799 800 802 803 805 806 807 808 809 810 812 813 814 815 817 818 820 821 823 824 826 827 829 830 831 832 833 834 835 836 837 838 838 839 840 841 842 843 844 845 846 847 847 848 848 849 849 849 849 850 850 851 851 852 852 852 852 852
782 783 785 787 789 791 792 793 794 796 797 798 799 800 802 804 805 806 807 808 809 810 812 813 814 815 817 818 820 822 823 825 826 828 829 830 831 832 833 834 835 836 837 837 838 839 840 841 842 843 844 845 846 846 847 848 848 848 848 848 849 849 850 850 851 851 851 851 851
779 781 784 786 787 789 791 792 794 794 796 797 798 799 800 802 804 805 806 807 808 809 810 812 813 814 815 817 819 820 822 824 825 827 828 829 830 831 832 833 834 834 835 836 837 838 839 840 841 842 843 844 845 845 846 846 847 847 847 848 848 848 849 849 849 849 850 850 850
778 779 782 784 786 788 789 791 793 794 795 796 797 798 799 800 802 804 805 806 807 808 809 810 811 813 814 816 818 819 820 822 824 825 826 828 829 829 830 831 832 833 834 835 836 837 838 839 840 841 842 843 843 844 845 845 845 846 846 846 847 847 848 848 848 848 848 848 848
776 778 780 782 784 786 788 790 791 793 794 795 796 797 798 799 801 802 804 805 806 807 808 809 810 811 813 814 816 817 819 820 822 823 825 826 827 828 829 830 831 832 833 834 835 836 837 838 839 840 841 842 842 843 843 844 844 844 845 845 846 846 847 847 847 847 847 847 847
775 777 779 781 783 785 787 789 790 791 793 794 795 796 797 798 799 801 802 804 804 806 807 808 809 810 811 813 814 815 817 818 819 821 822 824 825 827 828 829 830 831 832 833 834 835 836 837 838 839 840 841 841 842 842 843 843 843 843 844 844 845 845 845 846 846 846 846 846
774 776 778 780 782 784 785 787 789 790 791 793 794 795 796 797 799 800 801 802 804 805 806 807 808 809 810 811 813 814 815 816 817 819 820 822 824 825 827 828 829 830 831 832 833 834 835 836 837 838 839 839 840 840 841 841 841 842 842 843 843 843 843 844 844 844 845 844 844
772 774 776 778 780 782 784 786 787 789 790 791 793 794 795 796 798 799 800 801 803 804 805 806 807 808 809 811 812 813 814 815 816 817 819 820 822 824 825 827 828 829 830 831 832 833 834 835 836 837 838 838 839 839 839 840 840 840 841 841 841 842 842 842 843 843 843 843 843
771 773 775 777 779 781 783 784 786 787 789 790 791 793 794 795 797 798 799 800 802 803 804 805 806 808 809 810 811 813 814 815 816 817 819 820 822 823 824 826 827 829 829 830 831 832 833 834 835 836 836 837 837 838 838 838 839 839 839 840 840 840 841 841 841 841 842 842 842
769 771 773 775 777 779 781 783 784 786 787 789 790 792 793 794 796 797 798 799 801 802 804 804 806 807 808 809 811 812 814 815 816 817 819 820 821 823 824 825 827 828 829 829 830 831 832 833 834 834 835 836 836 836 837 837 838 838 838 838 839 839 839 839 839 840 840 840 840
768 770 772 774 775 777 779 781 783 784 786 788 789 791 792 794 795 796 797 799 800 801 803 804 805 806 808 809 810 812 813 814 815 817 818 819 821 822 824 825 826 828 829 829 830 831 831 832 833 833 834 834 835 835 836 836 836 836 837 837 837 838 838 838 838 838 838 838 838
767 769 770 772 774 775 777 779 781 783 784 786 788 790 791 793 794 795 797 798 799 801 803 805 806 807 808 809 810 811 813 814 815 817 818 819 820 821 823 824 826 827 829 829 830 830 831 831 832 832 833 833 834 834 834 835 835 835 835 835 836 836 836 836 836 836 837 837 837
765 767 769 770 772 774 775 777 779 781 783 785 787 789 791 792 794 795 796 798 799 801 803 804 806 807 808 809 809 811 812 814 815 817 819 819 820 821 822 823 825 827 828 829 829 829 830 830 830 831 831 831 832 833 833 833 834 834 834 834 834 835 835 835 835 835 835 835 835
764 765 767 769 770 772 774 776 778 780 782 784 786 788 790 792 794 795 796 798 799 801 802 804 805 807 808 809 810 811 813 814 816 818 819 820 821 821 821 822 824 825 827 828 828 828 828 829 829 829 829 830 830 831 831 832 832 833 833 833 833 833 834 834 834 834 833 833 833
762 764 766 767 769 771 773 775 777 779 781 783 785 787 789 792 794 795 796 798 799 801 802 803 804 806 807 809 809 811 812 814 816 818 819 821 821 821 821 822 823 824 825 826 826 826 827 827 827 828 828 829 829 830 830 831 831 831 831 832 832 832 832 832 832 832 832 832 831
761 763 764 766 768 770 772 774 776 778 780 783 785 788 790 792 793 795 797 798 799 801 802 803 803 804 806 807 809 810 811 813 815 816 818 819 820 821 821 822 822 823 824 824 825 825 825 826 826 826 827 827 828 828 829 829 830 830 830 830 830 830 830 830 830 830 830 830 830
760 761 762 764 766 768 771 773 775 778 780 783 785 788 790 792 793 795 797 798 800 801 802 802 802 803 804 806 807 808 809 811 813 814 815 817 818 819 820 821 821 822 822 823 823 824 824 824 825 825 825 826 827 827 828 828 829 829 829 829 829 829 829 829 829 829 828 828 828
758 759 761 763 765 768 770 773 775 777 780 782 784 787 789 791 793 795 797 799 800 801 801 801 801 802 803 804 805 806 808 809 811 812 814 815 816 818 819 819 820 820 821 822 822 823 823 823 824 824 824 825 825 826 827 827 827 828 828 828 828 827 827 827 827 827 827 826 826
758 759 761 763 766 768 771 773 775 778 780 782 784 786 789 791 793 795 797 798 799 799 800 800 800 801 802 803 804 806 807 808 809 811 812 814 815 817 818 818 819 819 819 820 821 821 822 822 822 823 824 824 824 825 825 826 826 826 826 826 826 826 826 825 825 825 825 825 824
761 762 763 765 767 769 771 773 775 778 780 782 784 787 789 790 792 794 796 797 797 798 798 798 799 800 802 803 804 805 806 807 808 809 811 813 814 815 816 817 817 818 818 819 819 820 820 821 821 822 823 823 823 824 824 824 824 825 825 825 824 824 824 824 824 823 823 823 823
763 764 764 766 768 770 771 773 775 777 779 781 784 785 788 789 791 793 794 795 795 796 797 798 799 800 802 803 804 805 806 807 808 809 810 812 813 814 815 815 816 816 817 818 818 819 819 820 820 821 821 822 822 822 823 823 823 823 823 823 823 823 823 822 822 821 821 821 821
763 764 766 767 769 770 772 774 775 777 779 780 782 784 785 787 789 791 792 793 794 794 795 797 798 800 801 803 804 805 806 807 808 809 810 811 812 813 814 814 814 815 816 817 817 818 819 819 819 820 820 820 821 821 821 821 822 822 822 822 821 821 821 820 820 819 819 819 819
763 765 766 768 770 772 773 774 776 777 778 779 781 782 784 785 787 789 790 792 793 794 795 796 798 799 800 801 803 804 806 807 807 808 809 810 811 812 812 813 814 814 815 816 816 817 818 818 818 819 819 819 819 819 820 820 820 820 820 820 820 819 819 819 819 818 818 817 817
764 765 767 769 770 772 774 775 776 777 778 779 780 782 783 784 786 788 789 790 792 793 794 795 797 798 799 801 802 804 805 805 806 807 808 809 809 810 811 812 812 813 814 815 815 816 816 817 817 817 817 818 818 818 818 818 818 818 818 818 818 818 818 817 817 816 816 815 815
764 765 767 769 770 772 774 775 776 777 778 779 780 782 783 784 786 787 789 790 791 793 794 795 796 798 799 800 801 803 804 804 805 806 807 807 808 809 810 810 811 812 813 814 814 815 815 815 816 816 816 816 816 817 817 816 816 816 816 816 816 816 816 815 815 814 814 814 813
763 765 767 768 770 771 773 774 775 777 778 779 780 782 783 784 785 787 788 789 791 792 793 794 795 797 798 799 801 802 803 804 804 805 806 806 807 808 809 810 811 811 812 813 814 814 814 814 814 814 815 815 815 815 815 815 814 814 814 814 814 814 814 814 813 813 813 812 812
763 764 766 768 769 771 772 774 775 776 778 779 780 781 783 784 785 787 788 789 790 791 792 794 795 796 798 799 800 801 802 803 804 804 805 806 807 808 808 809 810 811 811 812 812 813 813 813 813 813 813 813 813 813 813 813 813 813 812 812 812 812 812 812 811 811 811 810 810
762 764 766 767 769 770 772 774 775 776 778 779 780 781 782 784 785 786 787 788 789 791 792 794 795 796 798 799 800 801 802 802 803 804 804 805 806 807 808 809 809 810 811 811 811 811 812 812 812 812 812 812 812 811 811 811 811 811 811 810 810 810 810 809 809 809 809 809 808
762 764 765 767 769 770 771 773 774 776 777 778 779 781 782 783 784 786 787 788 789 791 793 794 795 796 798 799 799 800 801 802 802 803 804 805 805 806 807 808 809 809 809 810 810 810 810 810 810 810 810 810 810 809 809 809 809 809 809 809 809 808 808 808 808 807 807 807 806
762 764 765 767 768 769 771 772 774 775 777 778 779 780 782 783 784 786 787 788 789 791 792 794 795 796 797 798 799 799 800 801 802 803 803 804 805 806 806 807 808 808 809 809 809 809 809 809 809 809 809 809 808 808 808 808 808 808 808 807 807 806 806 806 806 805 805 804 804
762 763 765 766 768 769 770 772 773 775 776 778 779 780 782 783 784 786 787 788 789 791 792 793 794 795 796 797 798 799 800 800 801 802 803 804 804 805 806 806 807 807 807 808 808 808 808 808 808 808 807 807 807 807 807 807 806 806 806 806 805 805 804 804 804 803 803 802 802
762 763 764 766 767 769 770 772 773 775 776 778 779 780 782 783 784 785 787 788 789 790 792 793 794 795 796 797 798 799 799 800 801 802 803 803 804 805 805 805 806 806 806 806 806 806 806 806 806 806 806 806 806 805 805 805 805 805 804 804 804 803 803 802 802 801 800 800 799
762 763 764 766 767 769 770 772 774 775 776 778 779 781 782 783 784 785 787 788 789 790 791 793 794 795 796 797 798 799 799 800 801 802 802 803 804 804 804 804 805 805 805 805 805 805 805 805 805 805 805 804 804 804 804 804 804 804 803 803 802 802 801 800 800 799 799 798 797
762 763 764 766 767 769 770 772 774 775 777 778 779 781 782 783 784 785 787 788 789 790 791 792 794 794 795 796 797 798 799 800 801 802 802 803 803 803 804 804 804 804 804 804 804 804 804 804 804 804 804 803 803 803 803 803 803 802 802 801 801 800 799 799 798 798 797 796 795
Wind_Speed
24 24 24 24 25 25 24 23 22 23 23 23 22 22 23 23 23 23 23 23 23 22 22 22 22 22 22 23 25 25 23 22 22 22 21 20 19 19 19 19 19 19 18 17 17 16 15 13 12 11 11 11 10 10 10 9 8 8 7 7 7 8 8 8 8 8 8 8 7
24 24 24 24 25 25 24 23 22 23 23 23 23 23 23 23 23 23 23 23 23 23 22 22 22 22 22 24 25 25 24 22 23 23 22 21 20 20 19 20 19 19 19 18 17 16 15 14 12 11 11 11 11 10 10 10 9 8 8 8 8 8 9 9 9 9 9 8 8
25 25 24 25 25 25 24 23 22 23 23 23 23 23 23 23 23 23 23 23 23 23 22 22 21 22 23 24 25 25 24 23 23 23 22 21 21 20 20 20 20 19 18 18 17 16 15 14 13 12 11 11 11 11 11 10 10 9 9 9 9 9 9 9 9 9 9 9 8
25 25 25 25 26 26 25 23 22 23 23 23 23 23 23 23 23 22 22 23 23 23 22 22 22 22 23 25 26 25 24 24 24 24 23 22 21 21 21 21 20 19 18 18 17 16 15 14 13 12 11 11 11 11 11 11 10 10 9 9 10 10 10 10 10 9 9 9 9
25 25 25 26 27 27 25 23 23 23 23 23 23 22 22 23 22 22 22 22 23 23 23 23 22 22 23 25 26 26 25 24 24 24 23 22 22 22 21 21 20 19 18 18 17 16 15 14 13 12 11 11 11 11 11 11 10 10 10 10 10 10 10 10 10 10 9 9 9
26 25 25 25 27 26 25 23 23 24 24 23 22 22 22 22 22 22 23 23 23 24 24 23 22 22 24 26 27 27 26 25 25 25 24 23 22 22 22 21 20 19 19 18 17 16 15 14 13 12 11 11 10 10 10 10 10 10 10 10 10 10 10 10 10 10 9 9 9
26 25 25 25 26 26 24 23 23 24 24 23 22 22 22 22 22 23 23 23 23 24 24 23 23 23 25 26 27 27 26 26 25 25 24 23 23 22 22 21 20 19 19 19 18 17 16 15 14 13 11 11 10 10 10 10 10 11 11 11 11 11 11 11 11 10 10 10 9
26 25 25 25 26 25 24 23 23 24 24 23 23 22 22 22 22 23 23 23 23 24 24 24 24 25 26 27 27 27 26 26 25 25 24 23 23 22 22 21 20 20 19 19 18 18 17 16 14 13 12 11 10 10 10 11 11 11 11 11 11 11 11 11 12 12 11 11 10
25 25 25 25 25 25 24 23 23 24 24 23 23 23 22 22 23 23 23 23 23 24 24 24 24 25 27 27 27 27 26 25 25 25 24 23 23 23 22 21 21 20 20 19 19 18 17 16 14 13 12 11 11 10 10 11 12 12 12 12 11 11 11 12 13 13 13 12 12
25 25 25 25 25 25 24 23 23 24 24 23 23 23 23 24 24 24 23 23 23 23 24 24 25 26 27 27 27 26 25 25 24 24 24 23 23 23 22 22 21 21 20 20 19 18 17 16 14 13 12 12 11 11 11 12 13 13 13 13 12 12 12 12 13 14 14 14 14
25 25 25 25 25 25 24 23 23 23 23 23 22 23 24 25 25 24 23 23 23 24 24 24 25 26 27 27 26 26 25 25 24 24 24 23 23 23 23 22 22 21 20 20 19 18 17 16 15 13 12 12 11 11 11 12 13 14 14 14 13 13 13 13 14 14 15 15 15
25 25 25 25 25 25 24 24 23 23 23 22 22 23 24 25 25 24 23 23 23 24 24 24 26 27 27 27 26 26 26 25 25 25 24 24 24 23 23 22 22 21 20 20 19 18 17 16 15 14 13 12 12 12 12 13 14 14 15 15 15 15 14 15 15 15 15 15 15
24 25 25 24 24 24 24 23 22 22 22 22 22 23 23 25 25 24 23 23 24 24 24 25 26 27 27 26 26 26 26 26 26 25 25 25 24 23 23 22 21 21 20 19 19 18 17 16 15 14 13 13 13 13 13 14 14 15 16 16 16 16 16 16 16 15 15 15 15
24 25 24 24 24 24 23 23 22 21 22 22 22 22 23 24 24 24 23 23 24 24 24 25 26 26 27 26 26 26 26 26 26 26 26 25 24 24 23 22 21 20 19 19 19 18 17 16 15 14 14 14 14 14 14 14 15 15 16 17 17 17 17 17 16 16 16 16 15
24 24 24 24 24 24 23 23 21 21 21 22 22 22 22 23 23 23 23 23 24 24 24 25 25 26 26 26 26 26 26 26 26 26 25 25 24 23 22 21 20 20 19 19 19 18 17 16 15 14 14 14 14 14 14 15 15 16 17 17 17 18 18 17 17 16 16 16 16
24 24 24 24 24 24 23 22 21 21 21 22 22 22 22 22 23 23 23 23 23 24 24 25 25 25 25 25 25 25 25 25 25 25 24 24 23 23 22 20 20 19 19 18 18 17 16 15 15 15 15 14 14 14 14 15 15 16 17 18 18 18 18 18 17 17 17 17 17
25 24 24 24 24 23 23 22 21 21 21 22 22 22 22 22 22 23 23 24 23 23 24 24 24 24 24 24 24 24 24 24 24 24 23 22 22 22 21 20 19 18 18 17 17 16 16 16 16 16 15 15 15 15 14 15 15 16 17 17 18 18 19 19 18 18 18 18 19
24 24 24 24 24 24 23 23 21 21 21 22 22 22 22 21 22 23 23 24 23 23 23 23 22 23 23 24 24 23 23 23 23 23 22 22 21 21 20 19 18 17 16 15 15 14 15 15 16 16 16 16 16 16 15 15 16 16 16 16 17 18 18 19 19 19 19 19 20
24 24 23 23 24 24 24 23 22 22 22 22 22 22 21 21 21 22 22 22 22 21 21 21 21 21 22 23 23 23 22 22 22 22 21 21 21 20 19 18 17 16 14 14 14 14 14 15 15 16 16 17 17 16 16 16 16 16 16 16 17 17 18 19 19 20 20 20 20
23 23 23 23 24 24 24 24 22 22 22 22 22 21 21 20 20 21 21 20 20 20 20 20 19 19 20 22 22 22 21 21 21 20 20 19 19 19 19 18 16 14 13 13 14 14 14 15 15 16 17 17 17 17 17 17 17 17 17 17 18 18 18 19 19 20 20 21 21
23 23 23 23 23 23 23 23 22 22 22 22 21 21 20 20 19 19 19 19 19 19 19 19 18 18 19 21 21 21 21 20 19 19 18 18 18 18 18 16 15 14 14 14 14 15 15 15 16 16 17 17 17 17 17 17 17 17 18 18 18 19 19 20 20 21 21 21 21
23 23 23 22 23 22 22 23 23 22 22 21 21 20 19 18 18 17 17 17 17 18 18 19 19 20 20 21 21 21 20 19 18 18 18 17 17 16 16 15 14 14 15 15 15 15 15 16 16 16 16 16 17 17 17 17 17 17 18 18 19 19 20 20 21 21 21 22 22
21 21 22 22 23 24 24 24 24 23 22 21 20 19 18 17 16 16 16 16 17 17 18 19 20 21 22 22 21 20 20 20 19 19 18 16 16 15 15 14 15 15 16 16 16 16 16 16 16 16 16 16 16 16 16 16 17 17 18 19 19 20 20 21 21 21 21 22 22
18 21 24 25 27 28 27 27 26 25 24 22 20 18 16 15 14 14 15 15 17 18 18 20 21 22 22 22 21 21 21 22 21 19 18 17 16 15 15 15 16 16 16 16 16 16 16 16 16 16 16 15 15 15 15 16 17 18 19 19 20 20 20 21 21 21 21 21 22
21 25 28 29 30 30 29 28 28 26 25 23 21 18 15 13 13 13 14 15 17 18 19 20 22 22 22 21 21 22 23 23 22 20 19 17 16 16 16 16 16 17 17 16 16 16 16 16 16 16 15 15 14 14 15 16 17 18 19 19 20 20 21 21 21 21 21 21 22
24 27 29 30 30 30 30 28 27 25 23 20 18 15 14 13 12 13 14 16 18 20 21 21 22 22 22 21 22 23 23 23 22 20 19 18 17 17 17 17 17 16 16 17 17 17 17 17 17 17 16 16 15 15 15 16 17 18 18 19 19 20 21 21 22 22 22 22 22
20 24 28 29 29 29 28 26 22 19 15 11 9 8 10 13 15 15 16 18 20 22 22 21 21 21 21 22 23 23 23 23 22 20 19 18 18 18 18 17 16 16 16 17 17 18 18 18 18 19 18 18 17 17 17 17 17 18 18 18 19 20 21 22 22 23 23 23 23
16 21 25 26 26 25 24 21 17 13 10 9 9 10 12 14 17 18 18 20 21 22 21 20 20 21 22 22 22 22 22 21 21 20 19 19 19 19 18 17 16 15 16 16 17 18 19 19 20 20 21 21 20 20 19 19 19 18 18 19 19 20 21 22 22 23 23 24 24
19 20 21 21 21 20 19 16 14 12 10 10 10 12 15 17 20 21 21 20 20 20 20 20 20 22 23 22 22 21 20 20 20 19 19 19 19 19 18 17 15 15 15 16 17 18 19 20 21 21 22 22 22 22 21 20 19 19 18 19 19 20 21 22 22 23 23 23 24
18 18 17 18 17 16 15 13 12 10 9 9 10 13 15 18 21 22 21 20 20 20 20 21 22 23 24 22 21 20 20 20 20 20 20 20 19 18 17 17 16 15 15 16 17 18 19 20 21 22 22 22 22 22 22 21 20 19 19 19 19 20 21 22 22 23 23 23 23
16 16 15 15 14 14 13 12 10 9 9 9 11 14 17 19 21 21 20 20 20 20 21 22 24 24 24 23 22 21 21 20 20 21 21 20 19 18 17 17 16 15 15 16 16 17 19 20 21 21 22 22 22 22 22 22 21 21 20 20 20 21 21 22 23 23 23 23 23
16 15 15 14 14 13 12 12 11 10 10 10 12 15 17 19 20 20 20 20 20 21 22 23 25 25 24 23 23 22 22 21 21 21 21 20 19 18 17 16 16 15 15 15 16 17 18 19 20 21 22 22 22 22 23 23 23 23 22 22 21 22 22 23 23 24 24 24 24
16 15 14 14 14 13 13 12 12 12 13 13 15 16 17 18 19 19 20 20 22 23 24 25 25 25 24 23 23 22 22 21 21 20 20 19 18 17 16 16 15 15 15 15 16 17 18 19 20 21 22 22 22 23 23 24 24 23 23 23 23 23 23 23 24 24 25 25 25
16 15 14 14 14 14 14 14 14 14 15 15 16 17 18 18 19 19 20 21 22 24 24 24 24 24 23 22 22 21 21 20 20 19 18 17 17 16 15 15 14 14 13 14 15 16 18 19 20 21 21 22 22 23 24 24 24 24 23 23 23 23 23 24 24 25 25 26 26
15 15 14 14 15 15 15 15 15 15 16 16 16 17 18 18 19 19 20 21 22 23 23 22 22 22 21 20 20 20 19 19 18 17 17 16 16 15 14 14 13 12 13 13 15 16 17 19 19 20 20 21 22 23 24 24 24 24 24 24 24 24 24 24 25 25 25 26 26
15 15 15 15 15 15 15 16 16 16 16 16 17 17 18 18 19 19 20 20 21 21 20 20 20 20 19 19 18 18 18 17 17 16 16 15 15 14 13 13 12 12 13 14 15 16 18 18 19 19 19 20 21 22 23 24 24 24 23 23 24 24 24 25 25 25 26 26 27
15 15 15 15 15 15 16 16 16 17 17 17 17 18 18 18 19 19 19 20 20 20 19 19 19 19 18 18 17 17 17 17 16 16 15 15 14 13 12 12 12 13 13 14 15 17 17 18 18 18 18 19 20 21 22 22 22 22 23 23 24 24 24 25 25 26 26 27 27
15 15 15 15 15 15 16 16 17 17 17 17 17 18 18 18 18 18 19 19 19 19 19 18 18 18 18 17 16 16 15 15 15 15 14 13 12 11 11 12 12 13 14 14 15 16 17 17 17 17 17 17 18 19 20 21 21 21 22 22 23 24 24 24 25 25 26 27 27
14 15 15 15 15 16 16 17 18 18 18 18 18 18 18 18 18 18 19 19 19 18 18 18 18 17 17 16 15 14 14 14 13 13 13 12 11 10 11 12 13 14 14 14 15 16 16 16 16 16 17 17 17 18 18 19 20 20 21 22 23 23 24 24 25 25 26 27 27
14 14 15 15 16 17 17 17 18 18 18 18 17 17 17 17 17 18 18 18 18 18 17 17 16 16 15 15 14 13 13 12 12 11 11 10 10 10 11 12 13 14 14 15 15 16 17 17 17 18 18 18 18 18 19 19 20 20 21 22 23 23 24 24 25 25 26 26 27
14 15 15 16 17 17 17 17 17 17 17 17 17 17 17 17 17 17 17 17 17 16 16 16 16 15 15 14 13 12 12 11 10 9 9 9 9 10 11 12 13 14 14 15 15 16 16 17 18 18 19 19 20 20 19 19 20 21 22 22 23 23 24 24 25 25 25 26 26
Wind_Direction
189 189 189 187 183 181 181 182 183 183 183 183 184 185 184 184 184 183 183 182 182 183 184 184 184 184 183 182 181 181 181 181 181 180 178 176 175 173 173 175 176 176 176 176 176 175 174 175 177 179 180 182 182 183 184 185 187 190 197 203 207 209 209 208 209 211 214 216 218
190 189 188 186 183 181 181 183 184 184 183 183 184 184 184 184 184 183 183 183 183 183 184 185 185 185 184 183 182 181 181 181 181 180 178 177 175 174 175 176 176 176 176 176 176 175 175 177 178 179 180 182 183 184 186 187 188 191 198 206 210 211 212 211 213 215 217 218 221
191 189 187 184 182 181 182 184 185 184 183 183 183 184 183 183 183 183 184 184 184 184 184 184 185 185 184 183 182 182 182 182 181 179 178 176 175 175 176 176 177 176 176 176 176 175 176 177 179 180 181 182 184 186 189 192 194 196 201 208 212 214 214 214 216 218 219 220 222
193 190 186 183 181 182 183 184 185 184 182 182 182 182 183 183 183 183 183 183 183 183 184 184 184 184 184 183 182 182 183 182 181 179 178 177 176 176 176 176 176 176 175 176 175 175 176 178 180 182 183 184 187 190 194 196 198 200 204 210 213 215 215 216 218 219 220 221 221
194 191 187 183 182 183 184 184 184 183 181 181 181 182 182 183 183 182 182 182 183 184 184 183 183 183 183 182 181 182 182 182 181 179 178 177 177 177 177 176 176 175 176 176 175 175 176 178 181 183 185 187 191 196 199 201 201 202 205 210 214 216 217 218 219 220 221 221 220
195 192 187 184 183 183 184 184 183 182 180 180 180 182 183 183 183 182 182 182 183 183 183 182 181 181 181 181 181 181 182 182 181 180 178 178 178 177 177 176 176 176 176 176 175 175 177 179 182 185 187 191 197 202 205 205 203 204 206 211 214 217 218 220 221 221 222 221 220
195 192 187 184 183 183 184 184 183 181 180 180 181 183 185 185 184 182 182 182 182 181 181 180 180 180 180 180 180 181 181 181 181 180 178 177 178 178 177 176 176 177 177 176 175 176 178 181 183 186 189 194 201 206 209 209 209 208 209 212 215 218 220 222 222 222 222 222 222
196 192 187 184 183 184 184 183 182 181 181 181 183 186 188 187 185 182 181 180 180 180 179 179 179 179 179 178 179 180 180 180 180 179 178 178 178 178 177 177 177 178 178 177 177 177 179 182 184 187 190 196 202 207 211 212 214 213 213 215 217 220 222 223 223 222 222 223 225
196 191 187 184 184 185 185 183 183 183 183 184 186 189 190 188 185 182 180 179 179 179 179 179 180 179 178 178 178 178 179 179 179 179 178 178 178 178 178 178 178 178 179 179 178 179 181 183 185 187 191 197 202 208 212 215 218 218 217 217 220 223 226 226 225 224 224 226 229
195 190 186 183 183 184 184 184 185 185 186 187 190 191 191 188 184 182 180 179 179 178 178 179 179 178 177 177 177 178 178 178 178 178 179 179 179 179 179 179 178 179 179 180 180 180 182 184 186 189 194 200 205 211 216 220 221 221 221 221 222 226 229 231 229 228 227 229 231
194 189 185 183 182 183 184 185 186 188 188 190 192 192 190 186 183 182 180 179 178 178 178 178 177 177 176 177 177 178 178 178 178 179 179 180 180 181 181 180 180 180 180 180 180 181 182 184 187 192 197 203 209 216 222 223 223 223 223 224 225 228 231 234 234 232 231 231 232
192 187 184 183 182 182 184 186 188 189 190 191 192 190 187 183 182 180 180 179 178 179 178 178 176 176 176 177 178 178 178 178 179 179 180 181 182 182 182 181 181 180 180 180 180 181 182 186 189 194 200 206 213 220 224 226 226 226 226 226 226 228 232 236 237 237 236 236 236
189 185 184 183 182 183 185 187 189 191 191 192 191 188 184 182 181 180 179 179 178 178 178 177 177 176 177 177 178 179 179 179 180 180 181 182 182 182 182 181 181 181 180 180 180 181 183 187 192 198 204 211 217 222 226 228 229 229 229 229 228 229 232 236 239 241 241 241 240
186 185 184 183 183 184 186 188 191 192 192 192 191 187 183 181 180 180 179 178 177 177 177 177 177 177 178 178 179 179 180 180 181 181 181 181 181 181 181 180 181 180 180 181 181 183 185 189 195 201 209 216 222 226 229 231 232 233 233 233 232 233 234 237 240 241 243 243 243
185 185 185 184 184 185 187 190 192 193 193 192 190 186 182 180 180 179 178 177 177 177 177 177 178 180 180 180 180 180 180 181 181 180 180 179 179 179 179 179 179 180 181 182 184 185 188 193 199 206 213 220 226 230 232 234 235 236 237 237 237 238 238 239 241 242 243 244 245
185 186 187 186 185 186 188 191 193 194 193 191 189 185 181 180 179 178 177 176 176 177 177 178 179 180 181 182 182 181 181 181 180 178 177 176 177 177 177 178 178 179 180 182 186 190 195 200 205 211 217 223 228 232 235 236 238 239 240 241 241 242 242 243 243 243 244 245 246
185 187 188 188 187 188 190 192 193 192 190 188 186 183 181 179 177 175 175 176 177 178 179 180 179 179 181 182 183 182 180 179 177 176 175 174 175 175 176 177 177 179 181 184 189 196 203 209 211 215 220 225 230 233 236 238 240 242 243 245 245 245 245 245 245 245 245 246 247
186 187 189 190 190 190 191 192 191 189 186 185 184 182 179 175 174 174 175 176 177 178 179 180 180 180 181 182 182 181 178 176 175 174 174 174 174 174 175 176 177 179 183 188 195 203 209 214 217 220 222 226 230 233 236 238 241 244 246 248 249 249 248 247 246 246 247 248 248
186 188 190 191 192 191 190 190 188 185 183 183 181 179 176 172 171 171 173 175 176 177 178 180 181 181 181 181 179 177 174 173 173 173 173 174 175 175 176 177 179 182 187 195 203 210 214 218 222 224 226 227 230 233 235 238 242 245 248 250 252 253 252 251 250 248 248 249 250
186 188 191 192 193 191 188 185 182 180 179 179 176 173 170 168 167 167 170 173 175 176 177 179 181 181 179 176 174 171 170 170 170 172 174 176 177 177 178 179 181 187 195 204 210 215 219 222 225 227 228 229 231 233 235 238 241 245 247 250 253 255 255 255 254 252 251 251 251
187 189 191 192 190 186 181 176 173 172 171 169 166 165 165 166 166 166 167 172 176 178 180 182 182 178 173 170 169 168 167 167 169 172 177 180 181 181 180 180 184 192 202 210 214 218 222 225 226 227 228 230 231 234 236 239 242 245 248 250 253 255 256 257 256 255 254 252 252
189 190 189 187 182 176 169 164 160 159 158 157 157 158 160 164 166 168 171 175 178 181 184 184 181 176 172 169 167 167 166 167 170 175 179 182 183 182 182 183 189 198 206 213 218 221 223 225 226 227 228 230 232 235 238 241 244 247 250 252 254 255 256 257 257 256 255 253 253
190 187 180 173 166 160 154 151 148 146 145 146 148 153 157 162 167 171 175 179 181 183 184 183 177 174 171 170 168 167 167 168 172 176 178 180 182 183 186 191 198 205 211 216 220 222 224 224 225 226 228 230 233 236 241 245 248 250 252 254 255 256 257 257 257 257 256 254 254
169 162 157 153 151 148 146 143 141 140 140 141 143 146 151 159 165 170 176 180 182 183 182 178 173 171 170 169 168 167 168 171 173 175 176 179 182 187 193 200 206 211 215 218 220 222 223 223 224 225 227 230 234 239 244 249 251 253 254 255 256 257 258 259 259 259 258 257 257
140 141 142 143 143 144 143 141 140 139 139 140 141 141 141 147 159 169 176 180 182 180 176 172 170 170 169 168 168 170 172 174 175 175 176 180 186 193 200 206 210 213 216 218 220 221 222 222 223 224 226 229 235 241 247 252 254 255 255 256 257 258 259 260 260 260 260 260 261
128 133 137 140 142 143 143 142 140 140 140 141 142 142 143 149 157 169 178 181 181 180 177 175 174 173 170 169 170 172 174 175 176 176 178 183 191 198 204 208 211 213 214 217 219 220 222 223 225 226 229 232 237 243 249 253 255 256 257 258 259 259 260 260 260 260 260 261 262
126 132 137 141 143 145 146 146 147 148 151 157 168 178 179 176 173 176 182 184 183 183 183 181 179 175 172 171 172 174 175 176 177 178 182 188 195 201 205 208 209 211 212 215 218 220 223 225 228 231 234 237 241 245 249 252 254 257 259 261 262 262 262 260 260 259 259 259 260
137 139 140 143 146 149 152 156 163 172 187 213 232 230 219 211 195 187 186 186 185 184 184 183 180 176 173 173 175 176 177 177 179 182 187 193 198 202 205 206 207 209 212 216 219 223 226 229 232 235 239 243 246 248 250 252 254 257 259 262 264 264 263 262 260 259 258 258 258
143 144 146 147 151 155 161 168 179 190 204 221 229 230 228 224 205 192 186 185 183 182 181 180 177 175 174 175 177 178 179 181 183 187 192 197 200 202 203 203 204 208 213 218 222 226 230 234 237 240 244 247 249 251 251 252 253 256 258 260 262 263 264 263 262 261 259 258 257
150 151 153 157 161 166 173 180 188 199 210 215 213 215 215 208 194 186 183 181 181 180 179 177 175 174 175 176 178 180 183 186 189 192 195 198 200 201 201 201 204 209 214 220 226 230 235 239 242 245 248 250 252 253 252 252 253 254 256 258 260 261 263 264 265 264 263 261 260
158 161 164 168 173 178 185 192 196 201 205 206 198 195 192 187 183 181 181 181 181 181 178 176 174 174 176 178 181 184 187 190 192 194 196 198 198 198 199 201 205 210 217 223 229 234 239 243 247 250 252 254 254 255 254 253 253 253 254 255 257 260 262 265 267 268 268 267 265
163 167 172 177 183 188 191 192 193 192 188 184 182 181 181 180 180 181 181 182 181 179 177 175 175 176 179 182 185 188 190 192 193 195 196 197 198 198 200 203 207 212 219 226 233 238 243 248 251 254 256 257 257 257 256 255 253 253 253 254 256 258 261 263 266 268 269 270 269
165 170 175 180 184 186 185 183 183 181 177 174 174 176 178 179 180 181 181 181 179 177 175 175 176 179 182 185 188 190 191 192 193 195 196 197 197 198 200 204 209 215 222 231 238 244 248 251 254 256 258 259 259 259 257 255 253 252 253 254 256 258 260 262 264 266 268 269 269
166 169 173 176 177 176 174 174 173 173 172 172 175 177 178 178 179 179 179 178 176 175 176 177 179 182 185 188 189 190 191 192 193 193 194 195 196 198 200 205 211 219 229 239 246 250 253 255 256 258 259 260 260 260 257 254 252 252 253 255 258 260 261 262 264 265 267 268 269
164 167 168 169 169 168 168 169 170 171 171 174 176 177 177 177 176 177 175 174 173 174 176 179 182 184 187 189 190 191 191 191 190 191 192 193 195 198 201 207 216 226 237 246 252 255 257 258 259 260 262 262 261 259 256 252 251 251 253 256 259 261 262 263 264 265 266 267 268
163 164 165 165 166 167 168 169 170 171 172 174 175 175 174 174 174 173 173 171 171 173 176 180 182 185 187 189 190 190 189 188 188 189 191 193 195 199 205 214 225 236 247 253 257 259 260 262 262 264 264 264 262 259 255 251 250 251 254 257 260 262 264 265 266 266 267 267 267
163 164 164 165 167 169 170 170 169 169 170 171 172 171 170 170 170 171 170 170 171 174 177 180 181 184 186 187 187 187 187 187 187 188 190 193 196 203 212 224 236 247 254 260 262 263 264 265 265 266 266 266 263 259 254 251 251 252 255 259 261 264 266 267 267 267 267 267 266
163 164 164 166 168 169 169 167 164 164 165 166 167 167 168 168 169 170 170 171 173 175 177 179 181 183 184 184 183 183 184 186 188 189 191 195 201 210 222 235 246 253 259 263 265 267 267 268 268 268 268 268 265 260 255 252 252 254 258 261 264 267 268 268 269 268 268 267 266
164 164 165 166 166 164 161 158 158 159 160 162 163 165 167 169 170 171 172 173 175 177 178 178 179 181 181 181 179 180 183 186 190 193 196 202 211 222 234 244 252 257 261 264 267 268 270 270 271 272 272 272 270 264 259 255 255 257 261 264 267 269 270 271 271 270 270 268 267
160 161 161 160 158 155 152 152 154 156 158 160 163 166 169 171 173 173 173 174 176 177 178 178 178 179 179 178 178 179 182 186 191 197 203 211 223 235 244 251 256 261 264 266 267 268 269 270 271 272 273 273 272 268 262 259 259 261 264 267 270 272 274 274 273 273 272 271 270
151 152 152 151 149 148 149 150 153 156 158 162 166 170 173 174 173 171 172 173 176 177 178 178 178 178 177 176 177 179 182 186 192 200 210 222 235 244 252 258 262 265 267 268 269 270 271 271 272 272 272 272 271 268 263 260 261 263 266 270 272 274 276 277 277 276 275 274 274